Time,TemperatureF,DewpointF,PressureIn,WindDirection,WindDirectionDegrees,WindSpeedMPH,WindSpeedGustMPH,Humidity,HourlyPrecipIn,Conditions,Clouds,dailyrainin,SoftwareType,DateUTC
2013-03-29 00:07:00,51.8,51.3,30.10,SW,225,0.0,-999.0,98,-99.99,,,0.00,Acu-Link.com,2013-03-29 05:07:00,
2013-03-29 00:22:00,51.1,50.5,30.10,SW,225,0.0,-999.0,98,-99.99,,,0.00,Acu-Link.com,2013-03-29 05:22:00,
2013-03-29 00:37:00,50.4,49.8,30.10,SW,225,0.0,-999.0,98,-99.99,,,0.00,Acu-Link.com,2013-03-29 05:37:00,
2013-03-29 00:52:00,49.5,48.9,30.10,SW,225,0.0,-999.0,98,-99.99,,,0.00,Acu-Link.com,2013-03-29 05:52:00,
2013-03-29 01:07:00,48.9,48.4,30.09,SW,225,0.0,-999.0,98,-99.99,,,0.00,Acu-Link.com,2013-03-29 06:07:00,
2013-03-29 01:23:00,48.4,47.8,30.09,SW,225,0.0,-999.0,98,-99.99,,,0.00,Acu-Link.com,2013-03-29 06:23:00,
2013-03-29 01:38:00,47.8,47.3,30.09,SW,225,0.0,-999.0,98,-99.99,,,0.00,Acu-Link.com,2013-03-29 06:38:00,
2013-03-29 01:53:00,47.3,46.8,30.09,SW,225,0.0,-999.0,98,-99.99,,,0.00,Acu-Link.com,2013-03-29 06:53:00,
2013-03-29 02:09:00,46.9,46.4,30.08,SW,225,0.0,-999.0,98,-99.99,,,0.00,Acu-Link.com,2013-03-29 07:09:00,
2013-03-29 02:24:00,46.6,46.0,30.09,SW,225,0.0,-999.0,98,-99.99,,,0.00,Acu-Link.com,2013-03-29 07:24:00,
2013-03-29 02:39:00,46.0,45.5,30.08,SW,225,0.0,-999.0,98,-99.99,,,0.00,Acu-Link.com,2013-03-29 07:39:00,
2013-03-29 02:55:00,45.7,45.1,30.08,SW,225,0.0,-999.0,98,-99.99,,,0.00,Acu-Link.com,2013-03-29 07:55:00,
2013-03-29 03:10:00,45.3,44.8,30.08,East,90,0.0,-999.0,98,-99.99,,,0.00,Acu-Link.com,2013-03-29 08:10:00,
2013-03-29 03:25:00,45.3,44.8,30.07,ENE,67,0.0,-999.0,98,-99.99,,,0.00,Acu-Link.com,2013-03-29 08:25:00,
2013-03-29 03:40:00,45.0,44.4,30.07,ENE,67,0.0,-999.0,98,-99.99,,,0.00,Acu-Link.com,2013-03-29 08:40:00,
2013-03-29 03:55:00,44.6,44.1,30.07,ENE,67,0.0,-999.0,98,-99.99,,,0.00,Acu-Link.com,2013-03-29 08:55:00,
2013-03-29 04:10:00,44.2,43.7,30.06,ENE,67,0.0,-999.0,98,-99.99,,,0.00,Acu-Link.com,2013-03-29 09:10:00,
2013-03-29 04:25:00,43.9,43.4,30.06,ENE,67,0.0,-999.0,98,-99.99,,,0.00,Acu-Link.com,2013-03-29 09:25:00,
2013-03-29 04:40:00,43.7,43.2,30.07,North,0,0.0,-999.0,98,-99.99,,,0.00,Acu-Link.com,2013-03-29 09:40:00,
2013-03-29 04:55:00,43.5,43.0,30.07,NE,45,0.0,-999.0,98,-99.99,,,0.00,Acu-Link.com,2013-03-29 09:55:00,
2013-03-29 05:11:00,43.2,42.6,30.07,NE,45,0.0,-999.0,98,-99.99,,,0.00,Acu-Link.com,2013-03-29 10:11:00,
2013-03-29 05:26:00,43.0,42.5,30.08,NE,45,0.0,-999.0,98,-99.99,,,0.00,Acu-Link.com,2013-03-29 10:26:00,
2013-03-29 05:41:00,43.0,42.5,30.08,East,90,0.0,-999.0,98,-99.99,,,0.00,Acu-Link.com,2013-03-29 10:41:00,
2013-03-29 05:57:00,42.6,42.1,30.08,East,90,0.0,-999.0,98,-99.99,,,0.00,Acu-Link.com,2013-03-29 10:57:00,
2013-03-29 06:12:00,42.4,41.9,30.09,East,90,0.0,-999.0,98,-99.99,,,0.00,Acu-Link.com,2013-03-29 11:12:00,
2013-03-29 06:27:00,42.4,41.9,30.09,East,90,0.0,-999.0,98,-99.99,,,0.00,Acu-Link.com,2013-03-29 11:27:00,
2013-03-29 06:42:00,42.3,41.7,30.09,East,90,0.0,-999.0,98,-99.99,,,0.00,Acu-Link.com,2013-03-29 11:42:00,
2013-03-29 06:58:00,42.3,41.7,30.11,East,90,0.0,-999.0,98,-99.99,,,0.00,Acu-Link.com,2013-03-29 11:58:00,
2013-03-29 07:13:00,42.4,41.9,30.11,East,90,0.0,-999.0,98,-99.99,,,0.00,Acu-Link.com,2013-03-29 12:13:00,
2013-03-29 07:28:00,43.5,43.0,30.11,East,90,0.0,-999.0,98,-99.99,,,0.00,Acu-Link.com,2013-03-29 12:28:00,
2013-03-29 07:43:00,45.5,45.0,30.12,NE,45,0.0,-999.0,98,-99.99,,,0.00,Acu-Link.com,2013-03-29 12:43:00,
2013-03-29 07:58:00,47.1,46.6,30.12,SSW,202,1.1,-999.0,98,-99.99,,,0.00,Acu-Link.com,2013-03-29 12:58:00,
2013-03-29 08:14:00,49.3,48.7,30.12,ESE,112,0.0,-999.0,98,-99.99,,,0.00,Acu-Link.com,2013-03-29 13:14:00,
2013-03-29 08:29:00,54.5,53.9,30.12,West,270,0.0,-999.0,98,-99.99,,,0.00,Acu-Link.com,2013-03-29 13:29:00,
2013-03-29 08:44:00,54.7,54.1,30.12,South,180,2.2,-999.0,98,-99.99,,,0.00,Acu-Link.com,2013-03-29 13:44:00,
2013-03-29 09:00:00,57.0,56.5,30.12,SSE,157,1.6,-999.0,98,-99.99,,,0.00,Acu-Link.com,2013-03-29 14:00:00,
2013-03-29 09:15:00,59.4,58.8,30.13,SSE,157,2.2,-999.0,98,-99.99,,,0.00,Acu-Link.com,2013-03-29 14:15:00,
2013-03-29 09:30:00,60.6,60.1,30.12,NNE,22,1.6,-999.0,98,-99.99,,,0.00,Acu-Link.com,2013-03-29 14:30:00,
2013-03-29 09:46:00,64.4,63.8,30.12,ESE,112,3.8,-999.0,98,-99.99,,,0.00,Acu-Link.com,2013-03-29 14:46:00,
2013-03-29 10:16:00,66.9,66.3,30.11,SW,225,4.7,-999.0,98,-99.99,,,0.00,Acu-Link.com,2013-03-29 15:16:00,
2013-03-29 10:31:00,67.1,66.5,30.11,South,180,2.7,-999.0,98,-99.99,,,0.00,Acu-Link.com,2013-03-29 15:31:00,
2013-03-29 10:46:00,69.6,62.8,30.10,WSW,247,6.3,-999.0,79,-99.99,,,0.00,Acu-Link.com,2013-03-29 15:46:00,
2013-03-29 11:02:00,69.6,61.0,30.10,SE,135,2.2,-999.0,74,-99.99,,,0.00,Acu-Link.com,2013-03-29 16:02:00,
2013-03-29 11:17:00,69.3,59.8,30.10,South,180,3.1,-999.0,72,-99.99,,,0.00,Acu-Link.com,2013-03-29 16:17:00,
2013-03-29 11:32:00,69.6,61.0,30.10,SSW,202,4.7,-999.0,74,-99.99,,,0.00,Acu-Link.com,2013-03-29 16:32:00,
2013-03-29 11:47:00,69.4,61.2,30.09,SSW,202,4.3,-999.0,75,-99.99,,,0.00,Acu-Link.com,2013-03-29 16:47:00,
2013-03-29 12:03:00,71.2,62.5,30.09,SSW,202,3.8,-999.0,74,-99.99,,,0.00,Acu-Link.com,2013-03-29 17:03:00,
2013-03-29 12:18:00,72.3,62.8,30.09,SSW,202,2.2,-999.0,72,-99.99,,,0.00,Acu-Link.com,2013-03-29 17:18:00,
2013-03-29 12:33:00,72.0,60.8,30.07,East,90,2.7,-999.0,68,-99.99,,,0.00,Acu-Link.com,2013-03-29 17:33:00,
2013-03-29 12:49:00,72.3,63.2,30.07,SSW,202,2.2,-999.0,73,-99.99,,,0.00,Acu-Link.com,2013-03-29 17:49:00,
2013-03-29 13:04:00,72.9,62.9,30.06,WSW,247,3.1,-999.0,71,-99.99,,,0.00,Acu-Link.com,2013-03-29 18:04:00,
2013-03-29 13:35:00,75.0,61.6,30.04,SW,225,4.7,-999.0,63,-99.99,,,0.00,Acu-Link.com,2013-03-29 18:35:00,
2013-03-29 13:50:00,74.8,60.9,30.03,SW,225,5.8,-999.0,62,-99.99,,,0.00,Acu-Link.com,2013-03-29 18:50:00,
2013-03-29 14:05:00,73.8,59.0,30.03,SSW,202,3.1,-999.0,60,-99.99,,,0.00,Acu-Link.com,2013-03-29 19:05:00,
2013-03-29 14:20:00,76.3,60.4,30.02,SW,225,5.8,-999.0,58,-99.99,,,0.00,Acu-Link.com,2013-03-29 19:20:00,
2013-03-29 14:51:00,77.2,56.5,30.01,SSW,202,3.1,-999.0,49,-99.99,,,0.00,Acu-Link.com,2013-03-29 19:51:00,
2013-03-29 15:06:00,79.2,59.5,30.00,WSW,247,8.9,-999.0,51,-99.99,,,0.00,Acu-Link.com,2013-03-29 20:06:00,
2013-03-29 15:22:00,78.1,60.1,29.99,ESE,112,4.7,-999.0,54,-99.99,,,0.00,Acu-Link.com,2013-03-29 20:22:00,
2013-03-29 15:37:00,76.8,57.8,29.99,SSE,157,7.4,-999.0,52,-99.99,,,0.00,Acu-Link.com,2013-03-29 20:37:00,
2013-03-29 15:52:00,77.0,56.9,29.99,South,180,6.3,-999.0,50,-99.99,,,0.00,Acu-Link.com,2013-03-29 20:52:00,
2013-03-29 16:07:00,77.9,57.7,29.98,South,180,3.1,-999.0,50,-99.99,,,0.00,Acu-Link.com,2013-03-29 21:07:00,
2013-03-29 16:23:00,79.2,58.9,29.99,WSW,247,6.7,-999.0,50,-99.99,,,0.00,Acu-Link.com,2013-03-29 21:23:00,
2013-03-29 16:38:00,77.7,59.2,29.98,SSW,202,3.1,-999.0,53,-99.99,,,0.00,Acu-Link.com,2013-03-29 21:38:00,
2013-03-29 16:53:00,77.5,59.0,29.98,WNW,292,8.9,-999.0,53,-99.99,,,0.00,Acu-Link.com,2013-03-29 21:53:00,
2013-03-29 17:08:00,79.2,57.8,29.98,West,270,4.3,-999.0,48,-99.99,,,0.00,Acu-Link.com,2013-03-29 22:08:00,
2013-03-29 17:24:00,79.9,59.0,29.98,WSW,247,6.3,-999.0,49,-99.99,,,0.00,Acu-Link.com,2013-03-29 22:24:00,
2013-03-29 17:39:00,79.2,56.6,29.99,WSW,247,4.3,-999.0,46,-99.99,,,0.00,Acu-Link.com,2013-03-29 22:39:00,
2013-03-29 17:54:00,77.4,57.2,29.98,SW,225,3.1,-999.0,50,-99.99,,,0.00,Acu-Link.com,2013-03-29 22:54:00,
2013-03-29 18:10:00,75.6,57.7,29.99,SW,225,6.3,-999.0,54,-99.99,,,0.00,Acu-Link.com,2013-03-29 23:10:00,
2013-03-29 18:25:00,74.3,58.1,29.99,WSW,247,3.8,-999.0,57,-99.99,,,0.00,Acu-Link.com,2013-03-29 23:25:00,
2013-03-29 18:40:00,73.0,58.3,29.98,SW,225,5.1,-999.0,60,-99.99,,,0.00,Acu-Link.com,2013-03-29 23:40:00,
2013-03-29 18:56:00,72.3,59.4,29.99,SW,225,2.7,-999.0,64,-99.99,,,0.00,Acu-Link.com,2013-03-29 23:56:00,
2013-03-29 19:26:00,69.8,59.6,29.99,SW,225,3.8,-999.0,70,-99.99,,,0.00,Acu-Link.com,2013-03-30 00:26:00,
2013-03-29 19:42:00,68.9,57.9,30.00,SW,225,2.7,-999.0,68,-99.99,,,0.00,Acu-Link.com,2013-03-30 00:42:00,
2013-03-29 19:57:00,68.0,57.0,30.00,SW,225,2.7,-999.0,68,-99.99,,,0.00,Acu-Link.com,2013-03-30 00:57:00,
2013-03-29 20:12:00,67.3,56.8,30.00,SW,225,3.8,-999.0,69,-99.99,,,0.00,Acu-Link.com,2013-03-30 01:12:00,
2013-03-29 20:27:00,66.4,57.5,30.00,SSW,202,1.6,-999.0,73,-99.99,,,0.00,Acu-Link.com,2013-03-30 01:27:00,
2013-03-29 20:43:00,64.6,59.0,30.00,South,180,1.1,-999.0,82,-99.99,,,0.00,Acu-Link.com,2013-03-30 01:43:00,
2013-03-29 20:58:00,63.3,61.3,30.00,SW,225,1.1,-999.0,93,-99.99,,,0.00,Acu-Link.com,2013-03-30 01:58:00,
2013-03-29 21:13:00,62.4,61.8,30.00,SW,225,0.0,-999.0,98,-99.99,,,0.00,Acu-Link.com,2013-03-30 02:13:00,
2013-03-29 21:29:00,61.5,60.9,30.01,West,270,3.1,-999.0,98,-99.99,,,0.00,Acu-Link.com,2013-03-30 02:29:00,
2013-03-29 21:44:00,61.3,60.8,30.02,SSW,202,0.0,-999.0,98,-99.99,,,0.00,Acu-Link.com,2013-03-30 02:44:00,
2013-03-29 21:59:00,60.6,60.1,30.02,South,180,0.0,-999.0,98,-99.99,,,0.00,Acu-Link.com,2013-03-30 02:59:00,
2013-03-29 22:14:00,59.7,59.2,30.01,SW,225,0.0,-999.0,98,-99.99,,,0.00,Acu-Link.com,2013-03-30 03:14:00,
2013-03-29 22:30:00,58.5,57.9,30.01,SW,225,0.0,-999.0,98,-99.99,,,0.00,Acu-Link.com,2013-03-30 03:30:00,
2013-03-29 22:45:00,57.4,56.8,30.02,SW,225,0.0,-999.0,98,-99.99,,,0.00,Acu-Link.com,2013-03-30 03:45:00,
2013-03-29 23:00:00,56.7,56.1,30.02,SW,225,0.0,-999.0,98,-99.99,,,0.00,Acu-Link.com,2013-03-30 04:00:00,
2013-03-29 23:15:00,56.1,55.6,30.01,SW,225,0.0,-999.0,98,-99.99,,,0.00,Acu-Link.com,2013-03-30 04:15:00,
2013-03-29 23:30:00,55.6,55.0,30.01,SW,225,0.0,-999.0,98,-99.99,,,0.00,Acu-Link.com,2013-03-30 04:30:00,
2013-03-29 23:46:00,54.9,54.3,30.01,SW,225,0.0,-999.0,98,-99.99,,,0.00,Acu-Link.com,2013-03-30 04:46:00,